Location: Eschentzwiller
(47.7125°N, 7.3981°E)
Time: 04:12:14
(UTC+00:00)

CZ-4C R/B - Pass Details

Date: 27 October 2020
Orbit: 624 x 1378 km, 63.4° (Epoch: 01 December)

Event Time Altitude Azimuth Distance (km) Brightness Sun altitude
Rises 19:21:11 0° 319° (NW) 3,705 6.3 -30.9°
Reaches altitude 10° 19:23:42 10° 324° (NW) 2,861 5.5 -31.3°
Enters shadow 19:29:36 49° 19° (NNE) 1,477 3.3 -32.2°
